CZ-6A DEB, 54453

Orbit data source: Space-Track

CZ-6A DEB, 54453 is space debris in SSO originally from a launch on Fri, 11 Nov 2022 UTC launched from the Taiyaun Space Center, China (TSC). Debris objects in space refer to the collection of defunct objects orbiting the Earth. Examples of debris include non-operational satellites, rocket bodies, and fragments generated from explosions, collisions, or faulty payload assembly.

Loading next visibility...
Identifier
54453, 2022-151GD
Orbit
SSO
Country
Flag of CNCN / PRC
Related business
Manufacturer
SAST
Mission
Spacecraft
Bus & Motor
Unknown
Mass
Unknown
Launch date (UTC)
2022-11-11 (4 years ago)
Launch vehicle
Unknown
Launch site
Taiyaun Space Center, China (TSC)
Object type
Payload
Rocket body
Debris
Shape & HBR
Unknown shape, 0.1 m
Radar Cross Section
Medium (>0.1 m² and <1 m²)

Expand to show TLE details & history
Last TLE update: 5 hours ago

TLE from 5 hours ago
0 CZ-6A DEB
1 54453U 22151GD  26236.46327205  .00001594  00000-0  84447-3 0  9999
2 54453  98.9117 247.9112 0083704 110.6630 250.3542 14.13324887194234
Epoch: 2026-08-24T11:07Z
TLE epoch observation values (Epoch: 2026-08-24T11:07:06.705Z)
Latitude
0.00003°
Longitude
108.38864°
Altitude
871.702 km
Speed
7.406 km/s
True Right ascension
16h 31m 38s
True Declination
0° 00' 00"
Sunlit
Object was in daylight at epoch
Visualization orbit readout
Latitude
Unknown
Longitude
Unknown
Altitude
Unknown
Speed
Unknown
Apparent Right ascension
Unknown
Apparent Declination
Unknown
Sunlit
N/A
Visualization observer readout
Local Sidereal Time
07:25:58
Azimuth
Unknown
Elevation
Unknown
Doppler factor
Unknown
Orbital elements
Apogee altitude
905.655 km
Perigee altitude
784.731 km
Semi-major axis
7,223.33 km
Eccentricity
0.00837
Inclination
98.9117°
RAAN
247.9112°
Arg. of periapsis
110.663°
True anomaly
249.45406°
Mean anomaly
250.3542°
Eccentric anomaly
249.90381°
Mean motion
3.53539 °/min
Orbital period
101.83 mins
BSTAR
0.00084447
Loading maneuver chart data...
Computing Atmospheric mass density...
Loading historical data...
Loading historical data...
Loading historical data...
Loading historical data...
Loading historical data...
Loading historical data...
Loading historical data...

Documentation

Showing up to 5 results
|